H1 CPF 2 NER 2023 10 25 9 298 01 glonass143 H2 2007501 9143 46805 2023 10 25 0 0 0 2023 10 28 23 45 0 900 1 1 0 0 0 1 H9 10 0 60242 0.00000 0 22476506.212 8678659.989 -8341489.740 10 0 60242 900.00000 0 21305678.300 8342471.574 -11248319.396 10 0 60242 1800.00000 0 19770693.334 8057510.355 -13936335.853 10 0 60242 2700.00000 0 17904860.734 7873777.423 -16353246.200 10 0 60242 3600.00000 0 15752658.732 7834630.249 -18452040.287 10 0 60242 4500.00000 0 13368048.858 7974766.695 -20191908.222 10 0 60242 5400.00000 0 10812405.928 8318587.801 -21539035.331 10 0 60242 6300.00000 0 8152149.959 8879009.089 -22467259.193 10 0 60242 7200.00000 0 5456178.847 9656771.066 -22958576.196 10 0 60242 8100.00000 0 2793208.705 10640278.367 -23003488.175 10 0 60242 9000.00000 0 229132.346 11805974.629 -22601182.813 10 0 60242 9900.00000 0 -2175494.523 13119237.582 -21759544.747 10 0 60242 10800.00000 0 -4367735.526 14535756.932 -20494997.511 10 0 60242 11700.00000 0 -6304230.150 16003337.345 -18832179.675 10 0 60242 12600.00000 0 -7952744.301 17464050.935 -16803461.652 10 0 60242 13500.00000 0 -9293251.588 18856648.977 -14448312.688 10 0 60242 14400.00000 0 -10318501.776 20119131.627 -11812530.358 10 0 60242 15300.00000 0 -11034054.318 21191367.750 -8947347.662 10 0 60242 16200.00000 0 -11457777.255 22017654.760 -5908435.147 10 0 60242 17100.00000 0 -11618834.246 22549110.898 -2754817.566 10 0 60242 18000.00000 0 -11556203.862 22745799.338 452273.611 10 0 60242 18900.00000 0 -11316794.904 22578494.827 3650589.343 10 0 60242 19800.00000 0 -10953238.350 22030018.580 6778070.538 10 0 60242 20700.00000 0 -10521449.947 21096085.316 9774050.283 10 0 60242 21600.00000 0 -10078066.941 19785626.806 12580427.475 10 0 60242 22500.00000 0 -9677867.432 18120578.216 15142789.217 10 0 60242 23400.00000 0 -9371281.332 16135135.926 17411460.517 10 0 60242 24300.00000 0 -9202097.822 13874517.447 19342461.465 10 0 60242 25200.00000 0 -9205465.726 11393274.605 20898354.002 10 0 60242 26100.00000 0 -9406270.863 8753229.523 22048962.550 10 0 60242 27000.00000 0 -9817958.596 6021118.370 22771955.291 10 0 60242 27900.00000 0 -10441851.214 3266039.660 23053275.415 10 0 60242 28800.00000 0 -11266989.268 556811.941 22887414.355 10 0 60242 29700.00000 0 -12270504.190 -2040650.737 22277521.874 10 0 60242 30600.00000 0 -13418507.536 -4465837.849 21235350.669 10 0 60242 31500.00000 0 -14667460.681 -6665913.248 19781036.074 10 0 60242 32400.00000 0 -15965968.711 -8597664.479 17942714.413 10 0 60242 33300.00000 0 -17256924.435 -10229050.260 15755986.437 10 0 60242 34200.00000 0 -18479913.421 -11540282.240 13263235.270 10 0 60242 35100.00000 0 -19573779.785 -12524396.413 10512811.145 10 0 60242 36000.00000 0 -20479245.194 -13187290.689 7558097.922 10 0 60242 36900.00000 0 -21141470.728 -13547227.353 4456478.999 10 0 60242 37800.00000 0 -21512453.337 -13633821.776 1268222.471 10 0 60242 38700.00000 0 -21553154.976 -13486560.371 -1944692.731 10 0 60242 39600.00000 0 -21235273.663 -13152910.920 -5119786.422 10 0 60242 40500.00000 0 -20542580.550 -12686105.807 -8195298.313 10 0 60242 41400.00000 0 -19471765.403 -12142692.682 -11111396.153 10 0 60242 42300.00000 0 -18032753.692 -11579957.063 -13811346.456 10 0 60242 43200.00000 0 -16248480.801 -11053326.830 -16242624.282 10 0 60242 44100.00000 0 -14154132.014 -10613869.309 -18357939.835 10 0 60242 45000.00000 0 -11795879.476 -10305987.540 -20116161.459 10 0 60242 45900.00000 0 -9229168.547 -10165413.728 -21483116.914 10 0 60242 46800.00000 0 -6516624.857 -10217585.066 -22432257.435 10 0 60242 47700.00000 0 -3725669.179 -10476470.746 -22945171.873 10 0 60242 48600.00000 0 -925939.326 -10943899.769 -23011941.334 10 0 60242 49500.00000 0 1813373.928 -11609417.885 -22631327.842 10 0 60242 50400.00000 0 4426166.390 -12450679.660 -21810793.779 10 0 60242 51300.00000 0 6851926.310 -13434359.068 -20566352.112 10 0 60242 52200.00000 0 9038003.059 -14517540.214 -18922250.538 10 0 60242 53100.00000 0 10941545.186 -15649529.575 -16910495.918 10 0 60242 54000.00000 0 12531028.294 -16774013.413 -14570228.315 10 0 60242 54900.00000 0 13787310.399 -17831469.511 -11946956.869 10 0 60242 55800.00000 0 14704172.157 -18761731.608 -9091672.448 10 0 60242 56700.00000 0 15288321.003 -19506598.466 -6059854.407 10 0 60242 57600.00000 0 15558860.636 -20012377.619 -2910390.892 10 0 60242 58500.00000 0 15546249.720 -20232256.517 295566.088 10 0 60242 59400.00000 0 15290795.055 -20128401.131 3495788.354 10 0 60242 60300.00000 0 14840743.914 -19673693.514 6628178.772 10 0 60242 61200.00000 0 14250056.955 -18853035.056 9631974.317 10 0 60242 62100.00000 0 13575956.323 -17664160.455 12448921.650 10 0 60242 63000.00000 0 12876352.738 -16117927.917 15024402.540 10 0 60242 63900.00000 0 12207260.191 -14238073.033 17308487.584 10 0 60242 64800.00000 0 11620307.061 -12060436.077 19256898.315 10 0 60242 65700.00000 0 11160448.192 -9631694.254 20831859.723 10 0 60242 66600.00000 0 10863973.831 -7007650.902 22002827.342 10 0 60242 67500.00000 0 10756898.826 -4251151.772 22747075.571 10 0 60242 68400.00000 0 10853799.487 -1429713.785 23050136.416 10 0 60242 69300.00000 0 11157146.981 1387036.529 22906080.573 10 0 60242 70200.00000 0 11657165.412 4130009.982 22317635.542 10 0 60242 71100.00000 0 12332221.049 6733278.554 21296138.310 10 0 60242 72000.00000 0 13149727.085 9136568.363 19861323.068 10 0 60242 72900.00000 0 14067526.796 11287519.329 18040947.310 10 0 60242 73800.00000 0 15035697.964 13143618.387 15870262.645 10 0 60242 74700.00000 0 15998703.551 14673726.408 13391339.583 10 0 60242 75600.00000 0 16897798.871 15859135.579 10652258.441 10 0 60242 76500.00000 0 17673594.231 16694113.357 7706181.212 10 0 60242 77400.00000 0 18268665.218 17185910.539 4610321.930 10 0 60242 78300.00000 0 18630100.077 17354233.262 1424835.266 10 0 60242 79200.00000 0 18711875.968 17230201.473 -1788355.010 10 0 60242 80100.00000 0 18476962.836 16854838.247 -4966764.420 10 0 60242 81000.00000 0 17899064.832 16277154.200 -8048568.927 10 0 60242 81900.00000 0 16963924.445 15551908.605 -10973814.270 10 0 60242 82800.00000 0 15670132.966 14737142.580 -13685589.069 10 0 60242 83700.00000 0 14029411.851 13891589.442 -16131138.098 10 0 60242 84600.00000 0 12066351.951 13072072.466 -18262893.429 10 0 60242 85500.00000 0 9817620.617 12331000.680 -20039402.936 10 0 60243 0.00000 0 7330669.335 11714069.037 -21426137.799 10 0 60243 900.00000 0 4661993.993 11258260.040 -22396164.046 10 0 60243 1800.00000 0 1875023.326 10990232.011 -22930663.528 10 0 60243 2700.00000 0 -962281.200 10925160.764 -23019297.055 10 0 60243 3600.00000 0 -3780011.235 11066084.088 -22660401.114 10 0 60243 4500.00000 0 -6508977.200 11403775.913 -21861015.618 10 0 60243 5400.00000 0 -9083343.169 11917155.120 -20636742.332 10 0 60243 6300.00000 0 -11443122.069 12574211.315 -19011437.033 10 0 60243 7200.00000 0 -13536428.126 13333408.180 -17016741.571 10 0 60243 8100.00000 0 -15321393.757 14145504.888 -14691465.009 10 0 60243 9000.00000 0 -16767672.148 14955718.518 -12080825.942 10 0 60243 9900.00000 0 -17857464.038 15706136.015 -9235570.779 10 0 60243 10800.00000 0 -18586027.199 16338273.723 -6210985.220 10 0 60243 11700.00000 0 -18961648.746 16795676.317 -3065818.264 10 0 60243 12600.00000 0 -19005082.899 17026445.264 138860.116 10 0 60243 13500.00000 0 -18748479.238 16985589.949 3340845.192 10 0 60243 14400.00000 0 -18233847.792 16637102.135 6478004.364 10 0 60243 15300.00000 0 -17511126.661 15955666.071 9489481.043 10 0 60243 16200.00000 0 -16635934.352 14927931.999 12316872.168 10 0 60243 17100.00000 0 -15667101.994 13553299.140 14905356.604 10 0 60243 18000.00000 0 -14664089.607 11844174.803 17204752.841 10 0 60243 18900.00000 0 -13684395.062 9825698.145 19170485.989 10 0 60243 19800.00000 0 -12781064.412 7534939.286 20764445.982 10 0 60243 20700.00000 0 -12000407.757 5019606.253 21955721.072 10 0 60243 21600.00000 0 -11380016.012 2336312.443 22721193.129 10 0 60243 22500.00000 0 -10947161.283 -451524.672 23045983.857 10 0 60243 23400.00000 0 -10717647.543 -3276067.667 22923743.661 10 0 60243 24300.00000 0 -10695159.562 -6067628.609 22356777.777 10 0 60243 25200.00000 0 -10871137.425 -8757318.632 21356007.021 10 0 60243 26100.00000 0 -11225182.142 -11279668.935 19940763.494 10 0 60243 27000.00000 0 -11725975.762 -13575115.486 18138424.453 10 0 60243 27900.00000 0 -12332677.960 -15592245.060 15983890.518 10 0 60243 28800.00000 0 -12996740.956 -17289709.722 13518917.340 10 0 60243 29700.00000 0 -13664066.938 -18637730.352 10791312.726 10 0 60243 30600.00000 0 -14277417.450 -19619126.672 7854013.950 10 0 60243 31500.00000 0 -14778973.179 -20229830.745 4764062.627 10 0 60243 32400.00000 0 -15112935.817 -20478862.460 1581496.800 10 0 60243 33300.00000 0 -15228061.507 -20387768.206 -1631818.185 10 0 60243 34200.00000 0 -15080017.802 -19989546.466 -4813396.853 10 0 60243 35100.00000 0 -14633463.345 -19327106.049 -7901354.706 10 0 60243 36000.00000 0 -13863761.178 -18451322.543 -10835618.698 10 0 60243 36900.00000 0 -12758251.744 -17418775.562 -13559102.651 10 0 60243 37800.00000 0 -11317030.537 -16289263.053 -16018823.932 10 0 60243 38700.00000 0 -9553196.265 -15123198.296 -18166939.064 10 0 60243 39600.00000 0 -7492557.913 -13979000.087 -19961677.606 10 0 60243 40500.00000 0 -5172811.957 -12910586.625 -21368156.006 10 0 60243 41400.00000 0 -2642223.319 -11965079.023 -22359055.635 10 0 60243 42300.00000 0 42135.464 -11180811.202 -22915152.031 10 0 60243 43200.00000 0 2816513.956 -10585729.719 -23025685.465 10 0 60243 44100.00000 0 5612894.166 -10196250.445 -22688566.060 10 0 60243 45000.00000 0 8361581.595 -10016619.558 -21910409.873 10 0 60243 45900.00000 0 10993869.669 -10038805.017 -20706405.630 10 0 60243 46800.00000 0 13444667.264 -10242922.276 -19100014.960 10 0 60243 47700.00000 0 15654980.571 -10598175.543 -17122512.133 10 0 60243 48600.00000 0 17574146.733 -11064274.156 -14812372.351 10 0 60243 49500.00000 0 19161727.032 -11593263.739 -12214520.538 10 0 60243 50400.00000 0 20388981.611 -12131694.265 -9379455.297 10 0 60243 51300.00000 0 21239865.252 -12623033.064 -6362265.161 10 0 60243 52200.00000 0 21711503.780 -13010220.442 -3221556.371 10 0 60243 53100.00000 0 21814132.366 -13238259.623 -18313.270 10 0 60243 54000.00000 0 21570499.659 -13256731.317 3185286.328 10 0 60243 54900.00000 0 21014763.916 -13022126.459 6327077.575 10 0 60243 55800.00000 0 20190928.661 -12499898.390 9346113.192 10 0 60243 56700.00000 0 19150884.466 -11666147.670 12183842.816 10 0 60243 57600.00000 0 17952139.828 -10508868.164 14785244.347 10 0 60243 58500.00000 0 16655336.856 -9028701.555 17099885.601 10 0 60243 59400.00000 0 15321656.145 -7239167.950 19082896.195 10 0 60243 60300.00000 0 14010219.561 -5166362.093 20695831.477 10 0 60243 61200.00000 0 12775599.407 -2848126.854 21907412.450 10 0 60243 62100.00000 0 11665537.751 -332737.266 22694128.112 10 0 60243 63000.00000 0 10718970.751 2322851.494 23040689.156 10 0 60243 63900.00000 0 9964440.023 5055120.793 22940324.684 10 0 60243 64800.00000 0 9418957.014 7796383.491 22394916.362 10 0 60243 65700.00000 0 9087367.487 10477359.259 21414967.285 10 0 60243 66600.00000 0 8962242.597 13029824.664 20019405.691 10 0 60243 67500.00000 0 9024301.119 15389229.161 18235226.641 10 0 60243 68400.00000 0 9243345.300 17497169.200 16096977.650 10 0 60243 69300.00000 0 9579671.312 19303618.075 13646097.255 10 0 60243 70200.00000 0 9985895.244 20768818.928 10930118.382 10 0 60243 71100.00000 0 10409117.931 21864762.057 8001751.096 10 0 60243 72000.00000 0 10793337.315 22576184.632 4917862.021 10 0 60243 72900.00000 0 11082006.217 22901050.800 1738369.949 10 0 60243 73800.00000 0 11220626.867 22850491.889 -1474920.846 10 0 60243 74700.00000 0 11159271.585 22448209.148 -4659526.490 10 0 60243 75600.00000 0 10854921.960 21729364.375 -7753504.490 10 0 60243 76500.00000 0 10273526.234 20739005.353 -10696665.297 10 0 60243 77400.00000 0 9391686.532 19530092.965 -13431749.979 10 0 60243 78300.00000 0 8197903.242 18161213.676 -15905550.280 10 0 60243 79200.00000 0 6693322.565 16694074.386 -18069948.657 10 0 60243 80100.00000 0 4891954.464 15190885.818 -19882857.587 10 0 60243 81000.00000 0 2820350.657 13711745.049 -21309039.647 10 0 60243 81900.00000 0 516755.074 12312127.589 -22320792.511 10 0 60243 82800.00000 0 -1970238.475 11040594.507 -22898485.711 10 0 60243 83700.00000 0 -4583466.098 9936810.678 -23030939.139 10 0 60243 84600.00000 0 -7259337.428 9029956.897 -22715636.362 10 0 60243 85500.00000 0 -9930254.186 8337601.775 -21958769.004 10 0 60244 0.00000 0 -12527203.264 7865079.901 -20775111.880 10 0 60244 900.00000 0 -14982418.215 7605401.102 -19187730.814 10 0 60244 1800.00000 0 -17231995.367 7539694.066 -17227530.742 10 0 60244 2700.00000 0 -19218360.789 7638163.733 -14932650.828 10 0 60244 3600.00000 0 -20892482.419 7861521.742 -12347719.901 10 0 60244 4500.00000 0 -22215737.154 8162828.392 -9522986.177 10 0 60244 5400.00000 0 -23161355.518 8489667.621 -6513338.381 10 0 60244 6300.00000 0 -23715384.387 8786562.454 -3377237.353 10 0 60244 7200.00000 0 -23877128.462 8997528.285 -175579.208 10 0 60244 8100.00000 0 -23659053.019 9068655.594 3029487.698 10 0 60244 9000.00000 0 -23086153.074 8950612.594 6175768.746 10 0 60244 9900.00000 0 -22194816.379 8600961.705 9202228.370 10 0 60244 10800.00000 0 -21031228.852 7986191.796 12050171.236 10 0 60244 11700.00000 0 -19649390.010 7083380.119 14664376.501 10 0 60244 12600.00000 0 -18108822.081 5881413.541 16994163.376 10 0 60244 13500.00000 0 -16472068.979 4381717.148 18994367.851 10 0 60244 14400.00000 0 -14802089.763 2598458.919 20626212.292 10 0 60244 15300.00000 0 -13159655.306 558220.904 21858051.753 10 0 60244 16200.00000 0 -11600856.412 -1700850.520 22665983.302 10 0 60244 17100.00000 0 -10174826.758 -4130381.268 23034307.199 10 0 60244 18000.00000 0 -8921775.011 -6673538.879 22955831.434 10 0 60244 18900.00000 0 -7871407.495 -9267162.564 22432013.919 10 0 60244 19800.00000 0 -7041806.632 -11844167.020 21472939.453 10 0 60244 20700.00000 0 -6438811.509 -14336121.562 20097131.481 10 0 60244 21600.00000 0 -6055926.151 -16675898.639 18331201.569 10 0 60244 22500.00000 0 -5874759.150 -18800282.611 16209342.478 10 0 60244 23400.00000 0 -5865976.177 -20652430.762 13772673.662 10 0 60244 24300.00000 0 -5990725.348 -22184084.386 11068450.905 10 0 60244 25200.00000 0 -6202475.478 -23357437.673 8149154.577 10 0 60244 26100.00000 0 -6449189.600 -24146585.974 5071473.628 10 0 60244 27000.00000 0 -6675741.727 -24538492.545 1895204.783 10 0 60244 27900.00000 0 -6826474.157 -24533432.701 -1317911.674 10 0 60244 28800.00000 0 -6847786.360 -24144896.461 -4505396.445 10 0 60244 29700.00000 0 -6690644.884 -23398953.587 -7605252.072 10 0 60244 30600.00000 0 -6312906.835 -22333107.723 -10557175.534 10 0 60244 31500.00000 0 -5681357.285 -20994688.063 -13303738.115 10 0 60244 32400.00000 0 -4773373.028 -19438846.563 -15791508.783 10 0 60244 33300.00000 0 -3578141.019 -17726245.477 -17972098.568 10 0 60244 34200.00000 0 -2097378.755 -15920532.961 -19803105.168 10 0 60244 35100.00000 0 -345525.025 -14085713.317 -21248939.179 10 0 60244 36000.00000 0 1650608.139 -12283522.541 -22281515.953 10 0 60244 36900.00000 0 3852708.663 -10570919.435 -22880799.839 10 0 60244 37800.00000 0 6212327.094 -8997797.237 -23035190.596 10 0 60244 38700.00000 0 8672672.497 -7605011.202 -22741744.918 10 0 60244 39600.00000 0 11170767.177 -6422804.015 -22006229.172 10 0 60244 40500.00000 0 13639870.893 -5469693.994 -20843002.703 10 0 60244 41400.00000 0 16012073.975 -4751871.489 -19274734.243 10 0 60244 42300.00000 0 18220951.622 -4263127.446 -17331957.100 10 0 60244 43200.00000 0 20204169.172 -3985315.775 -15052471.913 10 0 60244 44100.00000 0 21905930.066 -3889328.677 -12480608.566 10 0 60244 45000.00000 0 23279164.789 -3936542.592 -9666361.725 10 0 60244 45900.00000 0 24287369.858 -4080672.624 -6664416.856 10 0 60244 46800.00000 0 24906020.566 -4269956.177 -3533085.770 10 0 60244 47700.00000 0 25123499.009 -4449572.709 -333172.638 10 0 60244 48600.00000 0 24941499.308 -4564196.650 2873207.293 10 0 60244 49500.00000 0 24374893.793 -4560575.008 6023833.102 10 0 60244 50400.00000 0 23451066.555 -4390020.328 9057584.092 10 0 60244 51300.00000 0 22208743.021 -4010713.290 11915622.708 10 0 60244 52200.00000 0 20696365.167 -3389717.486 14542531.641 10 0 60244 53100.00000 0 18970080.842 -2504621.059 16887383.293 10 0 60244 54000.00000 0 17091431.529 -1344735.662 18904721.342 10 0 60244 54900.00000 0 15124835.107 88198.266 20555436.031 10 0 60244 55800.00000 0 13134968.462 1779830.291 21807516.909 10 0 60244 56700.00000 0 11184158.588 3703551.479 22636669.174 10 0 60244 57600.00000 0 9329890.206 5821365.194 23026782.361 10 0 60244 58500.00000 0 7622532.949 8085242.291 22970242.708 10 0 60244 59400.00000 0 6103381.891 10438905.834 22468083.400 10 0 60244 60300.00000 0 4803092.255 12819972.635 21529969.650 10 0 60244 61200.00000 0 3740572.800 15162364.012 20174018.504 10 0 60244 62100.00000 0 2922383.504 17398886.792 18426456.150 10 0 60244 63000.00000 0 2342662.201 19463878.200 16321118.458 10 0 60244 63900.00000 0 1983582.992 21295805.131 13898803.451 10 0 60244 64800.00000 0 1816326.907 22839709.794 11206487.243 10 0 60244 65700.00000 0 1802523.857 24049399.520 8296417.813 10 0 60244 66600.00000 0 1896104.879 24889289.005 5225103.634 10 0 60244 67500.00000 0 2045486.224 25335817.161 2052216.474 10 0 60244 68400.00000 0 2195992.435 25378378.518 -1160570.280 10 0 60244 69300.00000 0 2292415.224 25019729.550 -4350784.782 10 0 60244 70200.00000 0 2281598.895 24275852.270 -7456377.352 10 0 60244 71100.00000 0 2114941.741 23175280.520 -10416934.051 10 0 60244 72000.00000 0 1750706.277 21757917.148 -13174858.685 10 0 60244 72900.00000 0 1156039.230 20073391.849 -15676499.458 10 0 60244 73800.00000 0 308614.542 18179028.952 -17873197.684 10 0 60244 74700.00000 0 -802171.264 16137510.818 -19722237.687 10 0 60244 75600.00000 0 -2174502.981 14014335.288 -21187679.191 10 0 60244 76500.00000 0 -3793980.283 11875173.990 -22241056.053 10 0 60244 77400.00000 0 -5633988.927 9783242.296 -22861927.961 10 0 60244 78300.00000 0 -7656594.885 7796790.846 -23038274.736 10 0 60244 79200.00000 0 -9813924.708 5966823.128 -22766726.032 10 0 60244 80100.00000 0 -12049974.989 4335133.871 -22052622.367 10 0 60244 81000.00000 0 -14302775.829 2932749.264 -20909906.714 10 0 60244 81900.00000 0 -16506818.432 1778833.020 -19360849.002 10 0 60244 82800.00000 0 -18595645.806 880102.668 -17435609.097 10 0 60244 83700.00000 0 -20504498.733 230778.991 -15171646.832 10 0 60244 84600.00000 0 -22172906.799 -186930.859 -12612990.600 10 0 60244 85500.00000 0 -23547116.452 -401838.412 -9809378.782 10 0 60245 0.00000 0 -24582254.797 -452310.454 -6815291.035 10 0 60245 900.00000 0 -25244139.378 -384400.113 -3688886.749 10 0 60245 1800.00000 0 -25510657.271 -249652.449 -490875.586 10 0 60245 2700.00000 0 -25372657.961 -102678.225 2716663.097 10 0 60245 3600.00000 0 -24834321.654 1400.919 5871484.791 10 0 60245 4500.00000 0 -23912988.687 9527.324 8912386.289 10 0 60245 5400.00000 0 -22638457.587 -126807.029 11780390.327 10 0 60245 6300.00000 0 -21051781.592 -449269.331 14419885.495 10 0 60245 7200.00000 0 -19203614.286 -990686.160 16779699.527 10 0 60245 8100.00000 0 -17152173.615 -1773419.675 18814085.672 10 0 60245 9000.00000 0 -14960909.184 -2808188.524 20483603.606 10 0 60245 9900.00000 0 -12695969.808 -4093383.555 21755878.550 10 0 60245 10800.00000 0 -10423576.245 -5614907.854 22606224.621 10 0 60245 11700.00000 0 -8207407.700 -7346548.851 23018121.001 10 0 60245 12600.00000 0 -6106109.966 -9250868.204 22983532.160 10 0 60245 13500.00000 0 -4171027.826 -11280573.765 22503066.171 10 0 60245 14400.00000 0 -2444255.082 -13380317.953 21585967.934 10 0 60245 15300.00000 0 -957082.478 -15488849.075 20249947.047 10 0 60245 16200.00000 0 271092.624 -17541427.307 18520842.971 10 0 60245 17100.00000 0 1233349.969 -19472405.788 16432133.047 10 0 60245 18000.00000 0 1935299.662 -21217869.932 14024291.940 10 0 60245 18900.00000 0 2394603.113 -22718225.181 11344013.901 10 0 60245 19800.00000 0 2639982.159 -23920625.118 8443312.107 10 0 60245 20700.00000 0 2709758.367 -24781137.959 5378511.945 10 0 60245 21600.00000 0 2649984.495 -25266560.005 2209157.470 10 0 60245 22500.00000 0 2512247.530 -25355799.258 -1003147.662 10 0 60245 23400.00000 0 2351236.860 -25040770.064 -4195941.935 10 0 60245 24300.00000 0 2222181.387 -24326760.460 -7307126.344 10 0 60245 25200.00000 0 2178265.070 -23232256.157 -10276178.899 10 0 60245 26100.00000 0 2268131.493 -21788227.959 -13045338.730 10 0 60245 27000.00000 0 2533584.303 -20036912.342 -15560735.954 10 0 60245 27900.00000 0 3007582.006 -18030136.315 -17773444.651 10 0 60245 28800.00000 0 3712613.062 -15827256.979 -19640437.974 10 0 60245 29700.00000 0 4659520.935 -13492802.316 -21125426.612 10 0 60245 30600.00000 0 5846829.649 -11093912.151 -22199564.334 10 0 60245 31500.00000 0 7260599.092 -8697686.408 -22842007.085 10 0 60245 32400.00000 0 8874816.917 -6368551.365 -23040315.170 10 0 60245 33300.00000 0 10652311.271 -4165753.499 -22790691.126 10 0 60245 34200.00000 0 12546146.646 -2141084.963 -22098049.088 10 0 60245 35100.00000 0 14501444.870 -336934.697 -20975914.681 10 0 60245 36000.00000 0 16457555.448 1215254.607 -19446157.670 10 0 60245 36900.00000 0 18350484.741 2496060.586 -17538562.722 10 0 60245 37800.00000 0 20115482.618 3498642.973 -15290246.753 10 0 60245 38700.00000 0 21689678.567 4228771.172 -12744934.189 10 0 60245 39600.00000 0 23014657.027 4704318.172 -9952104.308 10 0 60245 40500.00000 0 24038864.258 4954243.729 -6966027.298 10 0 60245 41400.00000 0 24719746.030 5017111.131 -3844707.866 10 0 60245 42300.00000 0 25025526.661 4939201.466 -648757.166 10 0 60245 43200.00000 0 24936555.011 4772306.123 2559784.822 10 0 60245 44100.00000 0 24446161.212 4571291.703 5718653.370 10 0 60245 45000.00000 0 23560988.459 4391540.950 8766565.923 10 0 60245 45900.00000 0 22300786.189 4286378.319 11644408.347 10 0 60245 46800.00000 0 20697673.502 4304589.267 14296377.595 10 0 60245 47700.00000 0 18794903.748 4488138.164 16671058.818 10 0 60245 48600.00000 0 16645181.855 4870181.223 18722416.506 10 0 60245 49500.00000 0 14308604.377 5473458.326 20410681.061 10 0 60245 50400.00000 0 11850307.733 6309131.668 21703114.307 10 0 60245 51300.00000 0 9337921.869 7376120.503 22574639.852 10 0 60245 52200.00000 0 6838934.399 8660960.595 23008326.750 10 0 60245 53100.00000 0 4418073.832 10138195.239 22995717.571 10 0 60245 54000.00000 0 2134819.502 11771282.680 22536994.764 10 0 60245 54900.00000 0 41140.556 13513983.386 21640982.018 10 0 60245 55800.00000 0 -1820443.005 15312170.629 20324980.198 10 0 60245 56700.00000 0 -3418397.531 17105990.122 18614440.368 10 0 60245 57600.00000 0 -4733247.887 18832279.738 16542479.339 10 0 60245 58500.00000 0 -5758140.503 20427149.065 14149246.116 10 0 60245 59400.00000 0 -6498874.232 21828611.448 11481150.568 10 0 60245 60300.00000 0 -6973398.240 22979158.535 8589968.357 10 0 60245 61200.00000 0 -7210798.349 23828169.143 5531838.950 10 0 60245 62100.00000 0 -7249814.969 24334050.763 2366175.804 10 0 60245 63000.00000 0 -7136955.639 24466022.918 -845490.094 10 0 60245 63900.00000 0 -6924282.545 24205466.300 -4040710.461 10 0 60245 64800.00000 0 -6666969.397 23546780.019 -7157339.776 10 0 60245 65700.00000 0 -6420732.001 22497709.844 -10134750.658 10 0 60245 66600.00000 0 -6239242.323 21079132.832 -12915020.019 10 0 60245 67500.00000 0 -6171636.617 19324306.784 -15444062.085 10 0 60245 68400.00000 0 -6260224.150 17277615.551 -17672685.618 10 0 60245 69300.00000 0 -6538494.449 14992862.660 -19557554.235 10 0 60245 70200.00000 0 -7029508.191 12531184.677 -21062030.942 10 0 60245 71100.00000 0 -7744740.436 9958671.549 -22156890.486 10 0 60245 72000.00000 0 -8683425.682 7343793.412 -22820885.863 10 0 60245 72900.00000 0 -9832432.847 4754741.087 -23041158.336 10 0 60245 73800.00000 0 -11166675.955 2256790.921 -22813483.464 10 0 60245 74700.00000 0 -12650043.644 -90196.731 -22142348.739 10 0 60245 75600.00000 0 -14236808.831 -2234041.875 -21040861.767 10 0 60245 76500.00000 0 -15873459.695 -4132178.759 -19530491.025 10 0 60245 77400.00000 0 -17500875.403 -5753179.837 -17640644.431 10 0 60245 78300.00000 0 -19056755.550 -7077807.643 -15408094.040 10 0 60245 79200.00000 0 -20478201.554 -8099552.240 -12876258.033 10 0 60245 80100.00000 0 -21704341.799 -8824633.381 -10094354.053 10 0 60245 81000.00000 0 -22678890.414 -9271469.039 -7116440.378 10 0 60245 81900.00000 0 -23352532.295 -9469634.289 -4000363.659 10 0 60245 82800.00000 0 -23685034.219 -9458355.875 -806633.904 10 0 60245 83700.00000 0 -23646993.405 -9284607.301 2402751.223 10 0 60245 84600.00000 0 -23221150.121 -9000885.909 5565509.725 10 0 60245 85500.00000 0 -22403209.256 -8662766.701 8620282.609 99